Wetterdaten: Dienstag, 14.06.2016
Datum Zeit Auen-Temp. Temp gefhlt Luftfeuchte Luftdruck Regen Wind Richtung Richtung Sonnenschein Taupunkt Windben
14.06.2016 00:00 10,6 C 10,5 C 84 % 1006,5 hPa 0,0 mm 0,0 km/h (0 Bft) SW 225 0 min 8,0 C 0,0 km/h (0 Bft)
14.06.2016 00:01 10,6 C 10,5 C 84 % 1006,5 hPa 0,0 mm 0,0 km/h (0 Bft) SW 225 0 min 8,0 C 0,0 km/h (0 Bft)
14.06.2016 00:06 10,6 C 10,5 C 84 % 1006,5 hPa 0,0 mm 0,0 km/h (0 Bft) SW 225 0 min 8,0 C 0,0 km/h (0 Bft)
14.06.2016 00:10 10,6 C 10,5 C 84 % 1006,5 hPa 0,0 mm 0,0 km/h (0 Bft) SW 225 0 min 8,0 C 0,0 km/h (0 Bft)
14.06.2016 00:15 10,6 C 10,5 C 85 % 1006,6 hPa 0,0 mm 0,0 km/h (0 Bft) NW 315 0 min 8,2 C 0,0 km/h (0 Bft)
14.06.2016 00:20 10,6 C 10,5 C 85 % 1006,6 hPa 0,0 mm 0,0 km/h (0 Bft) S-SW 202 0 min 8,2 C 0,0 km/h (0 Bft)
14.06.2016 00:25 10,6 C 10,5 C 85 % 1006,6 hPa 0,0 mm 0,0 km/h (0 Bft) SW 225 0 min 8,2 C 0,0 km/h (0 Bft)
14.06.2016 00:30 10,6 C 10,5 C 85 % 1006,6 hPa 0,0 mm 0,0 km/h (0 Bft) W 270 0 min 8,2 C 0,0 km/h (0 Bft)
14.06.2016 00:35 10,6 C 10,4 C 85 % 1006,4 hPa 0,0 mm 0,0 km/h (0 Bft) W-SW 247 0 min 8,2 C 0,0 km/h (0 Bft)
14.06.2016 00:40 10,6 C 10,4 C 85 % 1006,4 hPa 0,0 mm 0,0 km/h (0 Bft) W-NW 292 0 min 8,2 C 0,0 km/h (0 Bft)
14.06.2016 00:45 10,6 C 10,5 C 85 % 1006,4 hPa 0,0 mm 0,0 km/h (0 Bft) SW 225 0 min 8,2 C 0,0 km/h (0 Bft)
14.06.2016 00:50 10,6 C 10,5 C 85 % 1006,4 hPa 0,0 mm 0,0 km/h (0 Bft) W 270 0 min 8,2 C 0,0 km/h (0 Bft)
14.06.2016 00:55 10,5 C 10,4 C 85 % 1006,6 hPa 0,7 mm 0,6 km/h (0 Bft) S 180 0 min 8,1 C 0,0 km/h (0 Bft)
14.06.2016 01:00 10,5 C 10,4 C 85 % 1006,6 hPa 0,0 mm 0,6 km/h (0 Bft) W-SW 247 0 min 8,1 C 0,0 km/h (0 Bft)
14.06.2016 01:05 10,4 C 10,3 C 85 % 1006,6 hPa 0,0 mm 0,0 km/h (0 Bft) O-NO 67 0 min 8,0 C 0,0 km/h (0 Bft)
14.06.2016 01:10 10,4 C 10,3 C 85 % 1006,6 hPa 0,0 mm 0,0 km/h (0 Bft) N-NW 337 0 min 8,0 C 0,0 km/h (0 Bft)
14.06.2016 01:15 10,3 C 10,2 C 85 % 1006,6 hPa 0,7 mm 0,0 km/h (0 Bft) W 270 0 min 7,9 C 0,0 km/h (0 Bft)
14.06.2016 01:20 10,3 C 10,2 C 85 % 1006,6 hPa 0,0 mm 0,0 km/h (0 Bft) SO 135 0 min 7,9 C 0,0 km/h (0 Bft)
14.06.2016 01:25 10,2 C 10,2 C 85 % 1006,6 hPa 0,0 mm 0,0 km/h (0 Bft) S-SW 202 0 min 7,8 C 0,0 km/h (0 Bft)
14.06.2016 01:30 10,2 C 10,2 C 85 % 1006,6 hPa 0,0 mm 0,0 km/h (0 Bft) S-SW 202 0 min 7,8 C 0,0 km/h (0 Bft)
14.06.2016 01:35 10,2 C 10,1 C 85 % 1006,6 hPa 0,7 mm 0,0 km/h (0 Bft) SW 225 0 min 7,8 C 0,0 km/h (0 Bft)
14.06.2016 01:40 10,2 C 10,1 C 85 % 1006,6 hPa 0,0 mm 0,0 km/h (0 Bft) SO 135 0 min 7,8 C 0,0 km/h (0 Bft)
14.06.2016 01:45 10,2 C 10,1 C 85 % 1006,6 hPa 0,0 mm 0,0 km/h (0 Bft) W-SW 247 0 min 7,8 C 0,0 km/h (0 Bft)
14.06.2016 01:50 10,2 C 10,1 C 85 % 1006,6 hPa 0,0 mm 0,0 km/h (0 Bft) SW 225 0 min 7,8 C 0,0 km/h (0 Bft)
14.06.2016 01:55 10,2 C 10,2 C 85 % 1006,4 hPa 0,7 mm 0,0 km/h (0 Bft) SW 225 0 min 7,8 C 0,0 km/h (0 Bft)
14.06.2016 02:00 10,2 C 10,2 C 85 % 1006,4 hPa 0,0 mm 0,0 km/h (0 Bft) W 270 0 min 7,8 C 0,0 km/h (0 Bft)
14.06.2016 02:05 10,2 C 10,1 C 86 % 1006,4 hPa 0,0 mm 0,0 km/h (0 Bft) S 180 0 min 8,0 C 0,0 km/h (0 Bft)
14.06.2016 02:10 10,2 C 10,1 C 86 % 1006,4 hPa 0,0 mm 0,0 km/h (0 Bft) SW 225 0 min 8,0 C 0,0 km/h (0 Bft)
14.06.2016 02:15 10,2 C 10,1 C 86 % 1006,7 hPa 0,0 mm 0,0 km/h (0 Bft) S 180 0 min 8,0 C 0,0 km/h (0 Bft)
14.06.2016 02:20 10,1 C 10,0 C 86 % 1006,7 hPa 0,0 mm 0,0 km/h (0 Bft) S 180 0 min 7,9 C 0,0 km/h (0 Bft)
14.06.2016 02:25 10,1 C 10,0 C 86 % 1006,7 hPa 0,0 mm 0,0 km/h (0 Bft) W 270 0 min 7,9 C 0,0 km/h (0 Bft)
14.06.2016 02:30 10,1 C 9,9 C 86 % 1006,7 hPa 0,0 mm 0,0 km/h (0 Bft) SW 225 0 min 7,9 C 0,0 km/h (0 Bft)
14.06.2016 02:35 10,1 C 9,9 C 86 % 1006,4 hPa 0,0 mm 0,0 km/h (0 Bft) SW 225 0 min 7,9 C 0,0 km/h (0 Bft)
14.06.2016 02:40 10,0 C 9,9 C 86 % 1006,4 hPa 0,0 mm 0,0 km/h (0 Bft) SW 225 0 min 7,8 C 0,0 km/h (0 Bft)
14.06.2016 02:45 10,1 C 10,0 C 86 % 1006,4 hPa 0,0 mm 0,0 km/h (0 Bft) S 180 0 min 7,9 C 0,0 km/h (0 Bft)
14.06.2016 02:50 10,1 C 10,0 C 86 % 1006,4 hPa 0,0 mm 0,0 km/h (0 Bft) W-SW 247 0 min 7,9 C 0,0 km/h (0 Bft)
14.06.2016 02:55 10,1 C 10,0 C 86 % 1006,3 hPa 0,0 mm 0,0 km/h (0 Bft) S-SW 202 0 min 7,9 C 0,0 km/h (0 Bft)
14.06.2016 03:00 10,1 C 10,1 C 86 % 1006,3 hPa 0,0 mm 0,0 km/h (0 Bft) W-NW 292 0 min 7,9 C 0,0 km/h (0 Bft)
14.06.2016 03:05 10,2 C 10,1 C 86 % 1006,3 hPa 0,0 mm 0,0 km/h (0 Bft) S-SO 157 0 min 8,0 C 0,0 km/h (0 Bft)
14.06.2016 03:07 10,2 C 10,1 C 86 % 1006,3 hPa 0,0 mm 0,0 km/h (0 Bft) NW 315 0 min 8,0 C 0,0 km/h (0 Bft)
14.06.2016 03:10 10,2 C 10,1 C 86 % 1006,3 hPa 0,0 mm 0,0 km/h (0 Bft) NW 315 0 min 8,0 C 0,0 km/h (0 Bft)
14.06.2016 03:15 10,2 C 10,1 C 86 % 1006,2 hPa 0,0 mm 0,6 km/h (0 Bft) S-SW 202 0 min 8,0 C 8,9 km/h (2 Bft)
14.06.2016 03:20 10,2 C 10,1 C 86 % 1006,2 hPa 0,0 mm 0,6 km/h (0 Bft) S-SO 157 0 min 8,0 C 0,0 km/h (0 Bft)
14.06.2016 03:25 10,1 C 10,0 C 86 % 1006,2 hPa 0,0 mm 0,0 km/h (0 Bft) S-SO 157 0 min 7,9 C 0,0 km/h (0 Bft)
14.06.2016 03:30 10,1 C 10,0 C 86 % 1006,2 hPa 0,0 mm 0,0 km/h (0 Bft) W-SW 247 0 min 7,9 C 0,0 km/h (0 Bft)
14.06.2016 03:35 10,0 C 9,9 C 86 % 1006,1 hPa 0,0 mm 0,0 km/h (0 Bft) SW 225 0 min 7,8 C 0,0 km/h (0 Bft)
14.06.2016 03:40 9,9 C 9,8 C 86 % 1006,1 hPa 0,0 mm 0,0 km/h (0 Bft) N-NO 22 0 min 7,7 C 0,0 km/h (0 Bft)
14.06.2016 03:45 9,8 C 9,6 C 86 % 1006,1 hPa 0,0 mm 0,0 km/h (0 Bft) SW 225 0 min 7,6 C 0,0 km/h (0 Bft)
14.06.2016 03:50 9,8 C 9,6 C 86 % 1006,1 hPa 0,0 mm 0,0 km/h (0 Bft) SO 135 0 min 7,6 C 0,0 km/h (0 Bft)
14.06.2016 03:55 9,8 C 9,6 C 86 % 1005,9 hPa 0,0 mm 0,0 km/h (0 Bft) S 180 0 min 7,6 C 0,0 km/h (0 Bft)
14.06.2016 04:00 9,8 C 9,7 C 86 % 1005,9 hPa 0,0 mm 0,0 km/h (0 Bft) S-SO 157 0 min 7,6 C 0,0 km/h (0 Bft)
14.06.2016 04:05 9,8 C 9,7 C 86 % 1005,9 hPa 0,0 mm 0,0 km/h (0 Bft) S 180 0 min 7,6 C 0,0 km/h (0 Bft)
14.06.2016 04:10 9,8 C 9,7 C 86 % 1005,9 hPa 0,0 mm 0,0 km/h (0 Bft) S-SW 202 0 min 7,6 C 0,0 km/h (0 Bft)
14.06.2016 04:15 9,8 C 9,7 C 86 % 1005,8 hPa 0,0 mm 0,0 km/h (0 Bft) SW 225 0 min 7,6 C 0,0 km/h (0 Bft)
14.06.2016 04:20 9,8 C 9,8 C 86 % 1005,8 hPa 0,0 mm 0,0 km/h (0 Bft) SW 225 0 min 7,6 C 0,0 km/h (0 Bft)
14.06.2016 04:25 9,8 C 9,8 C 87 % 1005,8 hPa 0,0 mm 0,0 km/h (0 Bft) NW 315 0 min 7,7 C 0,0 km/h (0 Bft)
14.06.2016 04:30 9,8 C 9,8 C 87 % 1005,8 hPa 0,0 mm 0,0 km/h (0 Bft) SW 225 0 min 7,7 C 0,0 km/h (0 Bft)
14.06.2016 04:35 9,7 C 9,7 C 86 % 1005,9 hPa 0,0 mm 0,6 km/h (0 Bft) W-SW 247 0 min 7,5 C 0,0 km/h (0 Bft)
14.06.2016 04:40 9,7 C 9,7 C 86 % 1005,9 hPa 0,0 mm 0,6 km/h (0 Bft) S 180 0 min 7,5 C 0,0 km/h (0 Bft)
14.06.2016 04:45 9,7 C 9,7 C 87 % 1005,9 hPa 0,0 mm 0,3 km/h (0 Bft) S-SW 202 0 min 7,6 C 0,0 km/h (0 Bft)
14.06.2016 04:50 9,7 C 9,7 C 87 % 1005,9 hPa 0,0 mm 0,3 km/h (0 Bft) W 270 0 min 7,6 C 4,8 km/h (1 Bft)
14.06.2016 04:55 9,7 C 9,7 C 87 % 1006,0 hPa 0,0 mm 0,3 km/h (0 Bft) S 180 0 min 7,6 C 0,0 km/h (0 Bft)
14.06.2016 05:00 9,7 C 9,7 C 87 % 1006,0 hPa 0,0 mm 0,6 km/h (0 Bft) S 180 0 min 7,6 C 0,0 km/h (0 Bft)
14.06.2016 05:05 9,7 C 9,7 C 87 % 1006,0 hPa 0,0 mm 0,3 km/h (0 Bft) S 180 0 min 7,6 C 0,0 km/h (0 Bft)
14.06.2016 05:10 9,7 C 9,7 C 87 % 1006,0 hPa 0,0 mm 0,0 km/h (0 Bft) SW 225 0 min 7,6 C 0,0 km/h (0 Bft)
14.06.2016 05:15 9,7 C 9,7 C 87 % 1005,9 hPa 0,0 mm 0,0 km/h (0 Bft) NW 315 0 min 7,6 C 0,0 km/h (0 Bft)
14.06.2016 05:20 9,8 C 9,7 C 87 % 1005,9 hPa 0,0 mm 0,0 km/h (0 Bft) W-NW 292 0 min 7,7 C 0,0 km/h (0 Bft)
14.06.2016 05:25 9,8 C 9,7 C 87 % 1005,9 hPa 0,0 mm 0,0 km/h (0 Bft) S-SO 157 0 min 7,7 C 0,0 km/h (0 Bft)
14.06.2016 05:30 9,8 C 9,7 C 87 % 1005,9 hPa 0,0 mm 0,0 km/h (0 Bft) S 180 0 min 7,7 C 0,0 km/h (0 Bft)
14.06.2016 05:35 9,8 C 9,8 C 87 % 1005,8 hPa 0,0 mm 0,0 km/h (0 Bft) W-NW 292 0 min 7,7 C 0,0 km/h (0 Bft)
14.06.2016 05:40 9,8 C 9,7 C 87 % 1005,8 hPa 0,0 mm 0,0 km/h (0 Bft) W-SW 247 0 min 7,7 C 0,0 km/h (0 Bft)
14.06.2016 05:45 9,8 C 9,6 C 87 % 1005,8 hPa 0,0 mm 0,0 km/h (0 Bft) W 270 0 min 7,7 C 0,0 km/h (0 Bft)
14.06.2016 05:50 9,7 C 9,6 C 87 % 1005,8 hPa 0,0 mm 0,0 km/h (0 Bft) W-SW 247 0 min 7,6 C 0,0 km/h (0 Bft)
14.06.2016 05:55 9,7 C 9,7 C 87 % 1005,7 hPa 0,0 mm 0,0 km/h (0 Bft) W 270 0 min 7,6 C 0,0 km/h (0 Bft)
14.06.2016 06:00 9,8 C 9,8 C 87 % 1005,7 hPa 0,0 mm 0,0 km/h (0 Bft) NW 315 0 min 7,7 C 0,0 km/h (0 Bft)
14.06.2016 06:05 9,8 C 9,8 C 87 % 1005,7 hPa 0,0 mm 0,0 km/h (0 Bft) NW 315 0 min 7,7 C 0,0 km/h (0 Bft)
14.06.2016 06:06 9,8 C 9,9 C 87 % 1005,7 hPa 0,0 mm 0,0 km/h (0 Bft) W 270 0 min 7,7 C 0,0 km/h (0 Bft)
14.06.2016 06:08 9,8 C 9,9 C 87 % 1005,7 hPa 0,0 mm 0,0 km/h (0 Bft) W 270 0 min 7,7 C 0,0 km/h (0 Bft)
14.06.2016 06:10 9,8 C 9,9 C 87 % 1005,7 hPa 0,0 mm 0,0 km/h (0 Bft) W 270 0 min 7,7 C 0,0 km/h (0 Bft)
14.06.2016 06:15 9,9 C 10,0 C 87 % 1005,8 hPa 0,0 mm 0,0 km/h (0 Bft) W 270 0 min 7,8 C 0,0 km/h (0 Bft)
14.06.2016 06:20 10,0 C 10,1 C 87 % 1005,8 hPa 0,0 mm 0,0 km/h (0 Bft) W-NW 292 0 min 7,9 C 0,0 km/h (0 Bft)
14.06.2016 06:25 10,1 C 10,2 C 87 % 1005,8 hPa 0,0 mm 0,0 km/h (0 Bft) W-SW 247 0 min 8,0 C 0,0 km/h (0 Bft)
14.06.2016 06:30 10,2 C 10,2 C 87 % 1005,8 hPa 0,0 mm 0,0 km/h (0 Bft) O 90 0 min 8,1 C 0,0 km/h (0 Bft)
14.06.2016 06:35 10,2 C 10,3 C 86 % 1005,8 hPa 0,0 mm 0,0 km/h (0 Bft) S-SO 157 0 min 8,0 C 0,0 km/h (0 Bft)
14.06.2016 06:40 10,3 C 10,5 C 87 % 1005,8 hPa 0,0 mm 0,0 km/h (0 Bft) O-NO 67 0 min 8,2 C 0,0 km/h (0 Bft)
14.06.2016 06:45 10,4 C 10,9 C 87 % 1005,8 hPa 0,0 mm 0,0 km/h (0 Bft) N 360 0 min 8,3 C 0,0 km/h (0 Bft)
14.06.2016 06:50 10,6 C 11,0 C 87 % 1005,8 hPa 0,0 mm 0,0 km/h (0 Bft) NW 315 0 min 8,5 C 0,0 km/h (0 Bft)
14.06.2016 06:55 11,0 C 11,7 C 86 % 1005,6 hPa 0,0 mm 0,0 km/h (0 Bft) W-NW 292 0 min 8,7 C 0,0 km/h (0 Bft)
14.06.2016 07:00 10,9 C 11,8 C 87 % 1005,6 hPa 0,0 mm 0,0 km/h (0 Bft) W-NW 292 0 min 8,8 C 0,0 km/h (0 Bft)
14.06.2016 07:05 10,9 C 11,6 C 87 % 1005,6 hPa 0,0 mm 0,0 km/h (0 Bft) W 270 0 min 8,8 C 0,0 km/h (0 Bft)
14.06.2016 07:10 11,0 C 11,5 C 87 % 1005,6 hPa 0,0 mm 0,0 km/h (0 Bft) SO 135 0 min 8,9 C 0,0 km/h (0 Bft)
14.06.2016 07:15 11,1 C 11,7 C 87 % 1005,8 hPa 0,0 mm 0,0 km/h (0 Bft) S-SO 157 0 min 9,0 C 0,0 km/h (0 Bft)
14.06.2016 07:20 11,1 C 11,8 C 87 % 1005,8 hPa 0,0 mm 0,0 km/h (0 Bft) O-NO 67 0 min 9,0 C 0,0 km/h (0 Bft)
14.06.2016 07:25 11,4 C 12,7 C 87 % 1005,8 hPa 0,0 mm 0,0 km/h (0 Bft) N-NW 337 0 min 9,3 C 0,0 km/h (0 Bft)
14.06.2016 07:30 11,7 C 13,5 C 87 % 1005,8 hPa 0,0 mm 0,0 km/h (0 Bft) S 180 0 min 9,6 C 0,0 km/h (0 Bft)
14.06.2016 07:35 11,9 C 14,2 C 87 % 1005,8 hPa 0,0 mm 0,3 km/h (0 Bft) W-SW 247 0 min 9,8 C 0,0 km/h (0 Bft)
14.06.2016 07:40 12,0 C 14,2 C 86 % 1005,8 hPa 0,0 mm 0,3 km/h (0 Bft) N-NO 22 0 min 9,7 C 0,0 km/h (0 Bft)
14.06.2016 07:45 12,1 C 14,2 C 86 % 1005,8 hPa 0,0 mm 0,3 km/h (0 Bft) NO 45 0 min 9,8 C 11,6 km/h (2 Bft)
14.06.2016 07:50 12,0 C 13,9 C 86 % 1005,8 hPa 0,0 mm 1,8 km/h (1 Bft) W 270 0 min 9,7 C 0,0 km/h (0 Bft)
14.06.2016 07:55 12,1 C 13,9 C 86 % 1005,8 hPa 0,0 mm 2,4 km/h (1 Bft) O-SO 112 0 min 9,8 C 20,3 km/h (4 Bft)
14.06.2016 08:00 12,5 C 14,5 C 86 % 1005,8 hPa 0,0 mm 1,2 km/h (1 Bft) W 270 0 min 10,2 C 0,0 km/h (0 Bft)
14.06.2016 08:05 12,9 C 15,6 C 86 % 1005,8 hPa 0,0 mm 2,4 km/h (1 Bft) W-SW 247 0 min 10,6 C 4,5 km/h (1 Bft)
14.06.2016 08:10 13,1 C 16,1 C 85 % 1005,8 hPa 0,0 mm 2,4 km/h (1 Bft) S-SO 157 5 min 10,6 C 3,9 km/h (1 Bft)
14.06.2016 08:15 13,8 C 17,8 C 84 % 1005,9 hPa 0,0 mm 3,9 km/h (1 Bft) W 270 5 min 11,1 C 6,6 km/h (2 Bft)
14.06.2016 08:20 14,1 C 18,6 C 84 % 1005,9 hPa 0,0 mm 5,4 km/h (1 Bft) W-NW 292 5 min 11,4 C 13,1 km/h (3 Bft)
14.06.2016 08:25 13,6 C 18,2 C 83 % 1005,9 hPa 0,0 mm 6,0 km/h (2 Bft) W 270 5 min 10,8 C 8,9 km/h (2 Bft)
14.06.2016 08:30 13,4 C 17,4 C 83 % 1005,9 hPa 0,0 mm 6,0 km/h (2 Bft) NW 315 5 min 10,6 C 8,0 km/h (2 Bft)
14.06.2016 08:35 13,5 C 16,7 C 82 % 1005,8 hPa 0,0 mm 4,5 km/h (1 Bft) W-NW 292 5 min 10,5 C 10,7 km/h (2 Bft)
14.06.2016 08:40 13,6 C 16,9 C 82 % 1005,8 hPa 0,0 mm 4,5 km/h (1 Bft) W-NW 292 5 min 10,6 C 11,3 km/h (2 Bft)
14.06.2016 08:45 13,8 C 17,4 C 82 % 1005,8 hPa 0,0 mm 4,8 km/h (1 Bft) NW 315 5 min 10,8 C 0,0 km/h (0 Bft)
14.06.2016 08:50 14,1 C 17,6 C 82 % 1005,8 hPa 0,0 mm 3,9 km/h (1 Bft) SW 225 5 min 11,1 C 4,2 km/h (1 Bft)
14.06.2016 08:55 13,9 C 17,2 C 81 % 1006,1 hPa 0,0 mm 4,2 km/h (1 Bft) W 270 5 min 10,7 C 11,6 km/h (2 Bft)
14.06.2016 09:00 13,7 C 16,8 C 81 % 1006,1 hPa 0,0 mm 6,9 km/h (2 Bft) W 270 5 min 10,5 C 13,4 km/h (3 Bft)
14.06.2016 09:05 13,5 C 16,2 C 81 % 1006,1 hPa 0,0 mm 6,3 km/h (2 Bft) N-NW 337 0 min 10,3 C 0,0 km/h (0 Bft)
14.06.2016 09:06 13,4 C 16,1 C 80 % 1006,1 hPa 0,0 mm 5,7 km/h (1 Bft) W 270 0 min 10,0 C 5,7 km/h (1 Bft)
14.06.2016 09:09 13,4 C 16,1 C 80 % 1006,1 hPa 0,0 mm 5,7 km/h (1 Bft) W 270 0 min 10,0 C 5,7 km/h (1 Bft)
14.06.2016 09:10 13,4 C 16,1 C 80 % 1006,1 hPa 0,0 mm 5,7 km/h (1 Bft) W 270 0 min 10,0 C 5,7 km/h (1 Bft)
14.06.2016 09:15 13,4 C 15,8 C 80 % 1006,2 hPa 0,0 mm 5,4 km/h (1 Bft) W-NW 292 0 min 10,0 C 11,0 km/h (2 Bft)
14.06.2016 09:20 13,3 C 15,4 C 80 % 1006,2 hPa 0,0 mm 6,9 km/h (2 Bft) W-SW 247 0 min 9,9 C 8,0 km/h (2 Bft)
14.06.2016 09:25 13,4 C 15,3 C 80 % 1006,2 hPa 0,0 mm 8,0 km/h (2 Bft) S 180 0 min 10,0 C 5,7 km/h (1 Bft)
14.06.2016 09:30 13,7 C 15,9 C 80 % 1006,2 hPa 0,0 mm 7,5 km/h (2 Bft) W 270 0 min 10,3 C 9,5 km/h (2 Bft)
14.06.2016 09:35 14,0 C 16,9 C 80 % 1006,1 hPa 0,0 mm 7,2 km/h (2 Bft) SW 225 0 min 10,6 C 4,5 km/h (1 Bft)
14.06.2016 09:40 14,6 C 18,2 C 80 % 1006,1 hPa 0,0 mm 6,9 km/h (2 Bft) W-NW 292 0 min 11,2 C 19,1 km/h (3 Bft)
14.06.2016 09:45 15,1 C 20,0 C 79 % 1006,1 hPa 0,0 mm 7,5 km/h (2 Bft) NW 315 5 min 11,5 C 9,8 km/h (2 Bft)
14.06.2016 09:50 15,9 C 21,5 C 78 % 1006,1 hPa 0,0 mm 8,9 km/h (2 Bft) NW 315 5 min 12,1 C 11,3 km/h (2 Bft)
14.06.2016 09:55 16,0 C 22,9 C 76 % 1006,1 hPa 0,0 mm 6,6 km/h (2 Bft) O-NO 67 5 min 11,8 C 5,4 km/h (1 Bft)
14.06.2016 10:00 16,2 C 23,0 C 76 % 1006,1 hPa 0,0 mm 4,5 km/h (1 Bft) W 270 5 min 12,0 C 6,6 km/h (2 Bft)
14.06.2016 10:05 15,6 C 21,1 C 75 % 1006,1 hPa 0,0 mm 6,6 km/h (2 Bft) NW 315 5 min 11,2 C 21,2 km/h (4 Bft)
14.06.2016 10:10 15,3 C 19,6 C 75 % 1006,1 hPa 0,0 mm 8,6 km/h (2 Bft) W 270 5 min 10,9 C 11,9 km/h (2 Bft)
14.06.2016 10:15 15,2 C 18,8 C 75 % 1006,4 hPa 0,0 mm 7,7 km/h (2 Bft) NW 315 5 min 10,8 C 8,3 km/h (2 Bft)
14.06.2016 10:20 15,3 C 18,9 C 76 % 1006,4 hPa 0,0 mm 6,0 km/h (2 Bft) W-NW 292 0 min 11,1 C 6,3 km/h (2 Bft)
14.06.2016 10:25 15,7 C 20,0 C 75 % 1006,4 hPa 0,0 mm 5,7 km/h (1 Bft) W-NW 292 5 min 11,3 C 10,1 km/h (2 Bft)
14.06.2016 10:30 15,9 C 19,9 C 75 % 1006,4 hPa 0,0 mm 6,3 km/h (2 Bft) NW 315 5 min 11,5 C 0,0 km/h (0 Bft)
14.06.2016 10:35 15,9 C 20,8 C 74 % 1006,5 hPa 0,0 mm 6,9 km/h (2 Bft) NW 315 5 min 11,3 C 14,3 km/h (3 Bft)
14.06.2016 10:40 15,9 C 20,5 C 74 % 1006,5 hPa 0,0 mm 6,3 km/h (2 Bft) N-NW 337 5 min 11,3 C 9,8 km/h (2 Bft)
14.06.2016 10:45 15,9 C 20,5 C 74 % 1006,5 hPa 0,0 mm 5,4 km/h (1 Bft) W-NW 292 5 min 11,3 C 22,7 km/h (4 Bft)
14.06.2016 10:50 16,3 C 20,6 C 73 % 1006,5 hPa 0,0 mm 5,4 km/h (1 Bft) O-NO 67 5 min 11,4 C 0,0 km/h (0 Bft)
14.06.2016 10:55 17,2 C 22,6 C 72 % 1006,9 hPa 0,0 mm 3,9 km/h (1 Bft) W-SW 247 5 min 12,1 C 12,5 km/h (3 Bft)
14.06.2016 11:00 17,6 C 23,2 C 71 % 1006,9 hPa 0,0 mm 3,6 km/h (1 Bft) N-NW 337 5 min 12,3 C 12,8 km/h (3 Bft)
14.06.2016 11:05 18,1 C 24,4 C 70 % 1006,9 hPa 0,0 mm 7,5 km/h (2 Bft) W-SW 247 5 min 12,5 C 6,9 km/h (2 Bft)
14.06.2016 11:10 18,3 C 25,2 C 69 % 1006,9 hPa 0,0 mm 6,0 km/h (2 Bft) NW 315 5 min 12,5 C 0,0 km/h (0 Bft)
14.06.2016 11:15 18,1 C 25,5 C 68 % 1006,6 hPa 0,0 mm 5,1 km/h (1 Bft) N-NW 337 5 min 12,1 C 16,1 km/h (3 Bft)
14.06.2016 11:20 18,0 C 24,7 C 68 % 1006,6 hPa 0,0 mm 6,6 km/h (2 Bft) O-NO 67 5 min 12,0 C 0,0 km/h (0 Bft)
14.06.2016 11:25 17,8 C 24,2 C 68 % 1006,6 hPa 0,0 mm 8,0 km/h (2 Bft) N-NO 22 5 min 11,8 C 6,3 km/h (2 Bft)
14.06.2016 11:30 17,3 C 22,9 C 67 % 1006,6 hPa 0,0 mm 8,6 km/h (2 Bft) NW 315 5 min 11,1 C 13,4 km/h (3 Bft)
14.06.2016 11:35 17,4 C 21,7 C 68 % 1006,7 hPa 0,0 mm 8,3 km/h (2 Bft) NW 315 5 min 11,4 C 15,5 km/h (3 Bft)
14.06.2016 11:40 17,4 C 21,4 C 68 % 1006,7 hPa 0,0 mm 8,6 km/h (2 Bft) N-NO 22 5 min 11,4 C 4,5 km/h (1 Bft)
14.06.2016 11:45 17,1 C 20,6 C 68 % 1006,7 hPa 0,0 mm 6,0 km/h (2 Bft) NW 315 5 min 11,1 C 8,6 km/h (2 Bft)
14.06.2016 11:50 16,6 C 19,7 C 68 % 1006,7 hPa 0,0 mm 7,5 km/h (2 Bft) N-NW 337 0 min 10,7 C 8,9 km/h (2 Bft)
14.06.2016 11:55 16,6 C 19,2 C 69 % 1006,7 hPa 0,0 mm 10,1 km/h (2 Bft) W-SW 247 0 min 10,9 C 25,9 km/h (4 Bft)
14.06.2016 12:00 17,3 C 20,4 C 69 % 1006,7 hPa 0,0 mm 9,5 km/h (2 Bft) W-NW 292 0 min 11,6 C 17,0 km/h (3 Bft)
14.06.2016 12:05 18,4 C 23,3 C 68 % 1006,7 hPa 0,0 mm 8,6 km/h (2 Bft) N-NO 22 5 min 12,4 C 18,8 km/h (3 Bft)
14.06.2016 12:06 18,1 C 23,2 C 67 % 1006,7 hPa 0,0 mm 9,5 km/h (2 Bft) NW 315 1 min 11,9 C 14,9 km/h (3 Bft)
14.06.2016 12:10 18,1 C 23,2 C 67 % 1006,7 hPa 0,0 mm 9,5 km/h (2 Bft) NW 315 4 min 11,9 C 14,9 km/h (3 Bft)
14.06.2016 12:15 17,9 C 22,3 C 67 % 1006,3 hPa 0,0 mm 10,7 km/h (2 Bft) NW 315 5 min 11,7 C 8,0 km/h (2 Bft)
14.06.2016 12:20 17,9 C 22,1 C 65 % 1006,3 hPa 0,0 mm 8,9 km/h (2 Bft) NO 45 5 min 11,2 C 5,7 km/h (1 Bft)
14.06.2016 12:25 18,0 C 23,1 C 66 % 1006,3 hPa 0,0 mm 4,8 km/h (1 Bft) N-NW 337 5 min 11,6 C 4,5 km/h (1 Bft)
14.06.2016 12:30 18,5 C 23,6 C 65 % 1006,3 hPa 0,0 mm 2,1 km/h (1 Bft) N-NO 22 5 min 11,8 C 0,0 km/h (0 Bft)
14.06.2016 12:35 18,5 C 24,3 C 64 % 1006,2 hPa 0,0 mm 5,4 km/h (1 Bft) W-NW 292 5 min 11,6 C 27,7 km/h (4 Bft)
14.06.2016 12:40 18,2 C 23,5 C 64 % 1006,2 hPa 0,0 mm 7,2 km/h (2 Bft) W-SW 247 5 min 11,3 C 3,9 km/h (1 Bft)
14.06.2016 12:45 18,5 C 23,2 C 65 % 1006,2 hPa 0,0 mm 8,6 km/h (2 Bft) NW 315 5 min 11,8 C 11,9 km/h (2 Bft)
14.06.2016 12:50 18,3 C 23,3 C 64 % 1006,2 hPa 0,0 mm 9,2 km/h (2 Bft) W-NW 292 5 min 11,4 C 20,3 km/h (4 Bft)
14.06.2016 12:55 17,2 C 21,0 C 65 % 1006,0 hPa 0,0 mm 9,8 km/h (2 Bft) W-SW 247 5 min 10,6 C 16,1 km/h (3 Bft)
14.06.2016 13:00 16,9 C 19,8 C 66 % 1006,0 hPa 0,0 mm 10,1 km/h (2 Bft) W 270 0 min 10,5 C 10,7 km/h (2 Bft)
14.06.2016 13:05 16,8 C 19,0 C 67 % 1006,0 hPa 0,0 mm 6,3 km/h (2 Bft) W-SW 247 0 min 10,6 C 6,0 km/h (2 Bft)
14.06.2016 13:10 16,8 C 19,1 C 67 % 1006,0 hPa 0,0 mm 3,0 km/h (1 Bft) W-SW 247 0 min 10,6 C 3,0 km/h (1 Bft)
14.06.2016 13:15 17,2 C 19,2 C 67 % 1005,7 hPa 0,0 mm 0,3 km/h (0 Bft) SW 225 0 min 11,0 C 0,0 km/h (0 Bft)
14.06.2016 13:20 17,0 C 19,2 C 66 % 1005,7 hPa 0,0 mm 3,0 km/h (1 Bft) NW 315 0 min 10,6 C 12,2 km/h (2 Bft)
14.06.2016 13:25 16,6 C 18,3 C 66 % 1005,7 hPa 0,0 mm 8,6 km/h (2 Bft) N-NW 337 0 min 10,2 C 9,5 km/h (2 Bft)
14.06.2016 13:30 16,6 C 18,1 C 67 % 1005,7 hPa 0,0 mm 8,3 km/h (2 Bft) W 270 0 min 10,4 C 0,0 km/h (0 Bft)
14.06.2016 13:35 16,4 C 18,1 C 68 % 1005,3 hPa 0,0 mm 2,7 km/h (1 Bft) SW 225 0 min 10,5 C 5,4 km/h (1 Bft)
14.06.2016 13:40 16,4 C 17,9 C 68 % 1005,3 hPa 0,0 mm 0,3 km/h (0 Bft) NW 315 0 min 10,5 C 0,0 km/h (0 Bft)
14.06.2016 13:45 16,4 C 17,8 C 67 % 1005,3 hPa 0,0 mm 1,8 km/h (1 Bft) S 180 0 min 10,3 C 0,0 km/h (0 Bft)
14.06.2016 13:50 16,2 C 17,7 C 68 % 1005,3 hPa 0,0 mm 1,2 km/h (1 Bft) SO 135 0 min 10,3 C 0,0 km/h (0 Bft)
14.06.2016 13:55 15,8 C 17,1 C 70 % 1005,1 hPa 0,0 mm 0,0 km/h (0 Bft) O-NO 67 0 min 10,3 C 0,0 km/h (0 Bft)
14.06.2016 14:00 15,6 C 16,1 C 71 % 1005,1 hPa 0,0 mm 0,0 km/h (0 Bft) S-SO 157 0 min 10,4 C 0,0 km/h (0 Bft)
14.06.2016 14:05 15,0 C 15,3 C 73 % 1005,1 hPa 2,1 mm 0,0 km/h (0 Bft) O 90 0 min 10,2 C 0,0 km/h (0 Bft)
14.06.2016 14:10 14,9 C 15,3 C 75 % 1005,1 hPa 0,0 mm 0,0 km/h (0 Bft) S 180 0 min 10,5 C 0,0 km/h (0 Bft)
14.06.2016 14:15 14,9 C 15,4 C 76 % 1004,8 hPa 0,0 mm 0,0 km/h (0 Bft) N-NO 22 0 min 10,7 C 0,0 km/h (0 Bft)
14.06.2016 14:20 15,1 C 15,4 C 76 % 1004,8 hPa 0,0 mm 0,0 km/h (0 Bft) W-NW 292 0 min 10,9 C 0,0 km/h (0 Bft)
14.06.2016 14:25 15,1 C 15,7 C 77 % 1004,8 hPa 0,0 mm 0,0 km/h (0 Bft) NW 315 0 min 11,1 C 0,0 km/h (0 Bft)
14.06.2016 14:30 15,2 C 15,8 C 77 % 1004,8 hPa 0,0 mm 0,3 km/h (0 Bft) W-NW 292 0 min 11,2 C 0,0 km/h (0 Bft)
14.06.2016 14:35 15,5 C 15,9 C 78 % 1004,8 hPa 0,0 mm 0,3 km/h (0 Bft) O-NO 67 0 min 11,7 C 0,0 km/h (0 Bft)
14.06.2016 14:40 15,7 C 16,3 C 79 % 1004,8 hPa 0,0 mm 0,0 km/h (0 Bft) O 90 0 min 12,1 C 0,0 km/h (0 Bft)
14.06.2016 14:45 16,2 C 17,4 C 78 % 1004,8 hPa 0,0 mm 0,0 km/h (0 Bft) NW 315 0 min 12,4 C 3,3 km/h (1 Bft)
14.06.2016 14:50 16,2 C 17,6 C 77 % 1004,8 hPa 0,0 mm 0,3 km/h (0 Bft) O 90 0 min 12,2 C 0,0 km/h (0 Bft)
14.06.2016 14:55 15,7 C 17,1 C 78 % 1004,6 hPa 0,0 mm 0,6 km/h (0 Bft) NW 315 0 min 11,9 C 0,0 km/h (0 Bft)
14.06.2016 15:00 15,5 C 16,2 C 77 % 1004,6 hPa 0,0 mm 2,7 km/h (1 Bft) W 270 0 min 11,5 C 7,5 km/h (2 Bft)
14.06.2016 15:05 15,3 C 15,2 C 78 % 1004,6 hPa 0,7 mm 2,7 km/h (1 Bft) SO 135 0 min 11,5 C 0,0 km/h (0 Bft)
14.06.2016 15:06 14,9 C 14,9 C 78 % 1004,6 hPa 0,0 mm 0,9 km/h (0 Bft) N-NO 22 0 min 11,1 C 0,0 km/h (0 Bft)
14.06.2016 15:11 14,9 C 14,9 C 78 % 1004,6 hPa 0,0 mm 0,9 km/h (0 Bft) N-NO 22 0 min 11,1 C 0,0 km/h (0 Bft)
14.06.2016 15:15 15,1 C 15,4 C 79 % 1004,7 hPa 0,0 mm 0,0 km/h (0 Bft) S 180 0 min 11,5 C 0,0 km/h (0 Bft)
14.06.2016 15:20 15,4 C 15,8 C 79 % 1004,7 hPa 0,0 mm 0,0 km/h (0 Bft) S-SW 202 0 min 11,8 C 0,0 km/h (0 Bft)
14.06.2016 15:25 15,8 C 16,4 C 79 % 1004,7 hPa 0,0 mm 0,0 km/h (0 Bft) NW 315 0 min 12,2 C 0,0 km/h (0 Bft)
14.06.2016 15:30 16,2 C 16,8 C 78 % 1004,7 hPa 0,0 mm 1,5 km/h (1 Bft) W-NW 292 0 min 12,4 C 6,0 km/h (2 Bft)
14.06.2016 15:35 16,2 C 16,5 C 77 % 1004,6 hPa 0,0 mm 3,3 km/h (1 Bft) W 270 0 min 12,2 C 0,0 km/h (0 Bft)
14.06.2016 15:40 15,8 C 16,1 C 77 % 1004,6 hPa 0,0 mm 3,9 km/h (1 Bft) W 270 0 min 11,8 C 15,2 km/h (3 Bft)
14.06.2016 15:45 15,1 C 14,7 C 75 % 1004,6 hPa 0,0 mm 10,4 km/h (2 Bft) W 270 0 min 10,7 C 32,5 km/h (5 Bft)
14.06.2016 15:50 14,8 C 14,6 C 75 % 1004,6 hPa 0,0 mm 12,5 km/h (3 Bft) W-NW 292 0 min 10,4 C 4,5 km/h (1 Bft)
14.06.2016 15:55 14,8 C 14,7 C 76 % 1005,1 hPa 0,0 mm 5,7 km/h (1 Bft) SW 225 0 min 10,6 C 0,0 km/h (0 Bft)
14.06.2016 16:00 14,7 C 14,8 C 76 % 1005,1 hPa 0,0 mm 1,8 km/h (1 Bft) SW 225 0 min 10,5 C 0,0 km/h (0 Bft)
14.06.2016 16:05 14,7 C 14,9 C 77 % 1005,1 hPa 0,0 mm 2,1 km/h (1 Bft) NW 315 0 min 10,7 C 11,9 km/h (2 Bft)
14.06.2016 16:10 14,8 C 14,9 C 77 % 1005,1 hPa 0,0 mm 3,9 km/h (1 Bft) W-SW 247 0 min 10,8 C 8,3 km/h (2 Bft)
14.06.2016 16:15 14,8 C 15,0 C 78 % 1005,1 hPa 0,0 mm 6,0 km/h (2 Bft) W-SW 247 0 min 11,0 C 8,3 km/h (2 Bft)
14.06.2016 16:20 14,8 C 14,9 C 78 % 1005,1 hPa 0,0 mm 5,4 km/h (1 Bft) W 270 0 min 11,0 C 6,3 km/h (2 Bft)
14.06.2016 16:25 14,7 C 14,8 C 77 % 1005,1 hPa 0,0 mm 5,4 km/h (1 Bft) SW 225 0 min 10,7 C 3,6 km/h (1 Bft)
14.06.2016 16:30 14,7 C 14,8 C 77 % 1005,1 hPa 0,0 mm 5,7 km/h (1 Bft) S-SW 202 0 min 10,7 C 10,7 km/h (2 Bft)
14.06.2016 16:35 14,5 C 14,6 C 77 % 1005,1 hPa 0,0 mm 6,9 km/h (2 Bft) SW 225 0 min 10,5 C 0,0 km/h (0 Bft)
14.06.2016 16:40 14,5 C 14,8 C 77 % 1005,1 hPa 0,0 mm 7,2 km/h (2 Bft) W-SW 247 0 min 10,5 C 6,9 km/h (2 Bft)
14.06.2016 16:45 14,6 C 15,0 C 78 % 1005,1 hPa 0,0 mm 3,3 km/h (1 Bft) NW 315 0 min 10,8 C 6,6 km/h (2 Bft)
14.06.2016 16:50 14,6 C 15,4 C 78 % 1005,1 hPa 0,0 mm 3,3 km/h (1 Bft) NW 315 0 min 10,8 C 8,6 km/h (2 Bft)
14.06.2016 16:55 14,8 C 15,8 C 77 % 1004,9 hPa 0,0 mm 3,0 km/h (1 Bft) NW 315 0 min 10,8 C 9,5 km/h (2 Bft)
14.06.2016 17:00 14,8 C 16,1 C 77 % 1004,9 hPa 0,0 mm 2,7 km/h (1 Bft) NW 315 0 min 10,8 C 0,0 km/h (0 Bft)
14.06.2016 17:05 14,7 C 16,1 C 76 % 1004,9 hPa 0,0 mm 5,7 km/h (1 Bft) NW 315 0 min 10,5 C 10,4 km/h (2 Bft)
14.06.2016 17:10 14,6 C 15,8 C 76 % 1004,9 hPa 0,0 mm 6,0 km/h (2 Bft) W-SW 247 0 min 10,4 C 0,0 km/h (0 Bft)
14.06.2016 17:15 14,5 C 15,4 C 76 % 1004,8 hPa 0,0 mm 2,7 km/h (1 Bft) W 270 0 min 10,3 C 3,3 km/h (1 Bft)
14.06.2016 17:20 14,5 C 15,3 C 77 % 1004,8 hPa 0,0 mm 1,5 km/h (1 Bft) S 180 0 min 10,5 C 0,0 km/h (0 Bft)
14.06.2016 17:25 14,4 C 15,0 C 77 % 1004,8 hPa 0,0 mm 3,0 km/h (1 Bft) NO 45 0 min 10,4 C 3,6 km/h (1 Bft)
14.06.2016 17:30 14,5 C 15,2 C 77 % 1004,8 hPa 0,0 mm 3,3 km/h (1 Bft) S 180 0 min 10,5 C 3,0 km/h (1 Bft)
14.06.2016 17:35 14,7 C 16,0 C 77 % 1004,4 hPa 0,0 mm 2,7 km/h (1 Bft) W 270 0 min 10,7 C 8,0 km/h (2 Bft)
14.06.2016 17:40 15,0 C 16,7 C 77 % 1004,4 hPa 0,0 mm 2,4 km/h (1 Bft) SW 225 0 min 11,0 C 6,6 km/h (2 Bft)
14.06.2016 17:45 15,1 C 17,2 C 76 % 1004,4 hPa 0,0 mm 3,0 km/h (1 Bft) W-SW 247 0 min 10,9 C 4,8 km/h (1 Bft)
14.06.2016 17:50 15,2 C 17,3 C 76 % 1004,4 hPa 0,0 mm 3,9 km/h (1 Bft) W 270 0 min 11,0 C 5,7 km/h (1 Bft)
14.06.2016 17:55 15,4 C 17,6 C 76 % 1004,5 hPa 0,0 mm 5,1 km/h (1 Bft) S 180 0 min 11,2 C 5,4 km/h (1 Bft)
14.06.2016 18:00 15,6 C 17,9 C 76 % 1004,5 hPa 0,0 mm 4,5 km/h (1 Bft) NW 315 0 min 11,4 C 0,0 km/h (0 Bft)
14.06.2016 18:05 15,8 C 18,3 C 76 % 1004,5 hPa 0,0 mm 2,1 km/h (1 Bft) S 180 0 min 11,6 C 6,3 km/h (2 Bft)
14.06.2016 18:10 15,8 C 18,3 C 75 % 1004,5 hPa 0,0 mm 2,1 km/h (1 Bft) W 270 0 min 11,4 C 0,0 km/h (0 Bft)
14.06.2016 18:11 15,9 C 18,3 C 75 % 1004,5 hPa 0,0 mm 2,7 km/h (1 Bft) S-SW 202 0 min 11,5 C 5,7 km/h (1 Bft)
14.06.2016 18:12 15,9 C 18,3 C 75 % 1004,5 hPa 0,0 mm 2,7 km/h (1 Bft) S-SW 202 0 min 11,5 C 5,7 km/h (1 Bft)
14.06.2016 18:15 15,9 C 18,3 C 75 % 1004,5 hPa 0,0 mm 2,7 km/h (1 Bft) S-SW 202 0 min 11,5 C 5,7 km/h (1 Bft)
14.06.2016 18:20 15,7 C 18,1 C 74 % 1004,5 hPa 0,0 mm 1,5 km/h (1 Bft) W-SW 247 0 min 11,1 C 0,0 km/h (0 Bft)
14.06.2016 18:25 15,7 C 17,5 C 74 % 1004,5 hPa 0,0 mm 1,5 km/h (1 Bft) S 180 0 min 11,1 C 0,0 km/h (0 Bft)
14.06.2016 18:30 15,5 C 17,2 C 74 % 1004,5 hPa 0,0 mm 1,8 km/h (1 Bft) SW 225 0 min 10,9 C 0,0 km/h (0 Bft)
14.06.2016 18:35 15,6 C 17,0 C 74 % 1004,7 hPa 0,0 mm 0,9 km/h (0 Bft) W 270 0 min 11,0 C 0,0 km/h (0 Bft)
14.06.2016 18:40 15,6 C 17,0 C 74 % 1004,7 hPa 0,0 mm 0,3 km/h (0 Bft) S-SW 202 0 min 11,0 C 0,0 km/h (0 Bft)
14.06.2016 18:45 15,6 C 16,9 C 74 % 1004,7 hPa 0,0 mm 0,0 km/h (0 Bft) W 270 0 min 11,0 C 0,0 km/h (0 Bft)
14.06.2016 18:50 15,5 C 16,8 C 73 % 1004,7 hPa 0,0 mm 0,6 km/h (0 Bft) W 270 0 min 10,7 C 0,0 km/h (0 Bft)
14.06.2016 18:55 15,3 C 16,3 C 73 % 1004,8 hPa 0,0 mm 0,9 km/h (0 Bft) S 180 0 min 10,5 C 6,0 km/h (2 Bft)
14.06.2016 19:00 15,2 C 15,9 C 73 % 1004,8 hPa 0,0 mm 1,5 km/h (1 Bft) S 180 0 min 10,4 C 0,0 km/h (0 Bft)
14.06.2016 19:05 14,9 C 15,4 C 74 % 1004,8 hPa 0,0 mm 1,2 km/h (1 Bft) SW 225 0 min 10,3 C 0,0 km/h (0 Bft)
14.06.2016 19:10 14,8 C 15,2 C 74 % 1004,8 hPa 0,0 mm 0,3 km/h (0 Bft) W-NW 292 0 min 10,2 C 0,0 km/h (0 Bft)
14.06.2016 19:15 14,5 C 14,5 C 75 % 1005,0 hPa 0,0 mm 2,7 km/h (1 Bft) W 270 0 min 10,1 C 8,3 km/h (2 Bft)
14.06.2016 19:20 14,1 C 13,9 C 74 % 1005,0 hPa 0,0 mm 5,4 km/h (1 Bft) N-NO 22 0 min 9,5 C 6,0 km/h (2 Bft)
14.06.2016 19:25 13,8 C 13,3 C 75 % 1005,0 hPa 0,0 mm 5,4 km/h (1 Bft) W-SW 247 0 min 9,4 C 14,0 km/h (3 Bft)
14.06.2016 19:30 13,6 C 13,1 C 76 % 1005,0 hPa 0,0 mm 2,7 km/h (1 Bft) N-NW 337 0 min 9,4 C 0,0 km/h (0 Bft)
14.06.2016 19:35 13,4 C 13,0 C 76 % 1004,9 hPa 0,0 mm 1,5 km/h (1 Bft) S 180 0 min 9,3 C 0,0 km/h (0 Bft)
14.06.2016 19:40 13,3 C 12,9 C 77 % 1004,9 hPa 0,0 mm 3,0 km/h (1 Bft) SW 225 0 min 9,4 C 7,7 km/h (2 Bft)
14.06.2016 19:45 13,2 C 12,9 C 77 % 1004,9 hPa 0,0 mm 3,3 km/h (1 Bft) S 180 0 min 9,3 C 12,5 km/h (3 Bft)
14.06.2016 19:50 13,0 C 12,7 C 77 % 1004,9 hPa 0,0 mm 3,6 km/h (1 Bft) S 180 0 min 9,1 C 9,2 km/h (2 Bft)
14.06.2016 19:55 12,8 C 12,4 C 78 % 1005,0 hPa 0,7 mm 5,7 km/h (1 Bft) W-SW 247 0 min 9,1 C 0,0 km/h (0 Bft)
14.06.2016 20:00 12,7 C 12,3 C 78 % 1005,0 hPa 0,0 mm 6,9 km/h (2 Bft) S 180 0 min 9,0 C 15,5 km/h (3 Bft)
14.06.2016 20:05 12,6 C 12,1 C 79 % 1005,0 hPa 0,0 mm 6,3 km/h (2 Bft) W-SW 247 0 min 9,1 C 6,6 km/h (2 Bft)
14.06.2016 20:10 12,5 C 12,0 C 79 % 1005,0 hPa 0,0 mm 5,4 km/h (1 Bft) NW 315 0 min 9,0 C 14,6 km/h (3 Bft)
14.06.2016 20:15 12,3 C 11,9 C 79 % 1005,0 hPa 0,0 mm 6,6 km/h (2 Bft) S 180 0 min 8,8 C 14,0 km/h (3 Bft)
14.06.2016 20:20 12,2 C 11,7 C 79 % 1005,0 hPa 0,0 mm 9,8 km/h (2 Bft) W-SW 247 0 min 8,7 C 8,6 km/h (2 Bft)
14.06.2016 20:25 12,1 C 11,5 C 78 % 1005,0 hPa 0,0 mm 10,7 km/h (2 Bft) SW 225 0 min 8,4 C 35,2 km/h (5 Bft)
14.06.2016 20:30 12,1 C 11,5 C 78 % 1005,0 hPa 0,0 mm 9,5 km/h (2 Bft) S 180 0 min 8,4 C 15,5 km/h (3 Bft)
14.06.2016 20:35 12,0 C 11,6 C 78 % 1004,8 hPa 0,0 mm 7,7 km/h (2 Bft) S-SO 157 0 min 8,3 C 6,3 km/h (2 Bft)
14.06.2016 20:40 12,0 C 11,6 C 78 % 1004,8 hPa 0,0 mm 6,3 km/h (2 Bft) SW 225 0 min 8,3 C 14,0 km/h (3 Bft)
14.06.2016 20:45 12,0 C 11,6 C 78 % 1004,8 hPa 0,0 mm 6,9 km/h (2 Bft) SW 225 0 min 8,3 C 11,9 km/h (2 Bft)
14.06.2016 20:50 12,0 C 11,6 C 78 % 1004,8 hPa 0,0 mm 7,7 km/h (2 Bft) S 180 0 min 8,3 C 6,0 km/h (2 Bft)
14.06.2016 20:55 12,0 C 11,7 C 78 % 1004,9 hPa 0,0 mm 3,6 km/h (1 Bft) S-SO 157 0 min 8,3 C 0,0 km/h (0 Bft)
14.06.2016 21:00 11,9 C 11,6 C 79 % 1004,9 hPa 0,0 mm 2,1 km/h (1 Bft) NW 315 0 min 8,4 C 6,9 km/h (2 Bft)
14.06.2016 21:05 11,9 C 11,7 C 78 % 1004,9 hPa 0,0 mm 3,9 km/h (1 Bft) W-SW 247 0 min 8,2 C 3,0 km/h (1 Bft)
14.06.2016 21:10 11,9 C 11,7 C 78 % 1004,9 hPa 0,0 mm 5,4 km/h (1 Bft) N-NO 22 0 min 8,2 C 5,4 km/h (1 Bft)
14.06.2016 21:11 11,9 C 11,7 C 78 % 1004,9 hPa 0,0 mm 6,0 km/h (2 Bft) W 270 0 min 8,2 C 14,6 km/h (3 Bft)
14.06.2016 21:13 11,9 C 11,7 C 78 % 1004,9 hPa 0,0 mm 6,0 km/h (2 Bft) W 270 0 min 8,2 C 14,6 km/h (3 Bft)
14.06.2016 21:15 11,9 C 11,7 C 78 % 1004,9 hPa 0,0 mm 6,0 km/h (2 Bft) W 270 0 min 8,2 C 14,6 km/h (3 Bft)
14.06.2016 21:20 11,9 C 11,7 C 78 % 1004,9 hPa 0,0 mm 5,7 km/h (1 Bft) S-SO 157 0 min 8,2 C 6,3 km/h (2 Bft)
14.06.2016 21:25 11,9 C 11,7 C 77 % 1004,9 hPa 0,0 mm 6,3 km/h (2 Bft) W 270 0 min 8,0 C 6,0 km/h (2 Bft)
14.06.2016 21:30 11,9 C 11,7 C 77 % 1004,9 hPa 0,0 mm 6,0 km/h (2 Bft) W-SW 247 0 min 8,0 C 5,7 km/h (1 Bft)
14.06.2016 21:35 11,8 C 11,7 C 77 % 1005,1 hPa 0,0 mm 3,0 km/h (1 Bft) W-SW 247 0 min 7,9 C 0,0 km/h (0 Bft)
14.06.2016 21:40 11,8 C 11,6 C 77 % 1005,1 hPa 0,0 mm 3,0 km/h (1 Bft) SW 225 0 min 7,9 C 12,2 km/h (2 Bft)
14.06.2016 21:45 11,7 C 11,6 C 77 % 1005,1 hPa 0,0 mm 3,3 km/h (1 Bft) W-SW 247 0 min 7,8 C 4,5 km/h (1 Bft)
14.06.2016 21:50 11,7 C 11,6 C 76 % 1005,1 hPa 0,0 mm 4,5 km/h (1 Bft) SW 225 0 min 7,6 C 0,0 km/h (0 Bft)
14.06.2016 21:55 11,7 C 11,5 C 76 % 1005,3 hPa 0,0 mm 3,9 km/h (1 Bft) W-SW 247 0 min 7,6 C 0,0 km/h (0 Bft)
14.06.2016 22:00 11,6 C 11,5 C 76 % 1005,3 hPa 0,0 mm 2,7 km/h (1 Bft) N-NW 337 0 min 7,5 C 0,0 km/h (0 Bft)
14.06.2016 22:05 11,5 C 11,4 C 77 % 1005,3 hPa 0,0 mm 1,2 km/h (1 Bft) S-SW 202 0 min 7,6 C 8,0 km/h (2 Bft)
14.06.2016 22:10 11,5 C 11,3 C 77 % 1005,3 hPa 0,0 mm 1,5 km/h (1 Bft) W 270 0 min 7,6 C 0,0 km/h (0 Bft)
14.06.2016 22:15 11,4 C 11,3 C 77 % 1005,4 hPa 0,0 mm 2,4 km/h (1 Bft) W-NW 292 0 min 7,5 C 0,0 km/h (0 Bft)
14.06.2016 22:20 11,4 C 11,2 C 77 % 1005,4 hPa 0,0 mm 2,4 km/h (1 Bft) S 180 0 min 7,5 C 0,0 km/h (0 Bft)
14.06.2016 22:25 11,3 C 11,2 C 77 % 1005,4 hPa 0,0 mm 2,7 km/h (1 Bft) W-SW 247 0 min 7,4 C 7,5 km/h (2 Bft)
14.06.2016 22:30 11,3 C 11,2 C 78 % 1005,4 hPa 0,0 mm 3,0 km/h (1 Bft) W-SW 247 0 min 7,6 C 0,0 km/h (0 Bft)
14.06.2016 22:35 11,3 C 11,1 C 78 % 1005,4 hPa 0,0 mm 3,0 km/h (1 Bft) NW 315 0 min 7,6 C 6,6 km/h (2 Bft)
14.06.2016 22:40 11,3 C 11,0 C 78 % 1005,4 hPa 0,0 mm 2,7 km/h (1 Bft) S-SO 157 0 min 7,6 C 4,5 km/h (1 Bft)
14.06.2016 22:45 11,3 C 10,9 C 78 % 1005,4 hPa 0,0 mm 2,4 km/h (1 Bft) S 180 0 min 7,6 C 3,3 km/h (1 Bft)
14.06.2016 22:50 11,3 C 10,8 C 78 % 1005,4 hPa 0,0 mm 1,2 km/h (1 Bft) SO 135 0 min 7,6 C 0,0 km/h (0 Bft)
14.06.2016 22:55 11,1 C 10,7 C 79 % 1005,4 hPa 0,0 mm 0,3 km/h (0 Bft) S-SO 157 0 min 7,6 C 0,0 km/h (0 Bft)
14.06.2016 23:00 11,1 C 10,7 C 79 % 1005,4 hPa 0,0 mm 0,6 km/h (0 Bft) S-SW 202 0 min 7,6 C 6,3 km/h (2 Bft)
14.06.2016 23:05 11,1 C 10,6 C 79 % 1005,4 hPa 0,0 mm 3,3 km/h (1 Bft) W-SW 247 0 min 7,6 C 6,0 km/h (2 Bft)
14.06.2016 23:10 11,0 C 10,6 C 79 % 1005,4 hPa 0,0 mm 3,9 km/h (1 Bft) S 180 0 min 7,5 C 0,0 km/h (0 Bft)
14.06.2016 23:15 11,0 C 10,5 C 79 % 1005,4 hPa 0,0 mm 1,5 km/h (1 Bft) W-SW 247 0 min 7,5 C 0,0 km/h (0 Bft)
14.06.2016 23:20 10,9 C 10,5 C 80 % 1005,4 hPa 0,0 mm 0,6 km/h (0 Bft) S 180 0 min 7,6 C 5,1 km/h (1 Bft)
14.06.2016 23:25 10,9 C 10,5 C 80 % 1005,4 hPa 0,0 mm 0,3 km/h (0 Bft) W-NW 292 0 min 7,6 C 3,3 km/h (1 Bft)
14.06.2016 23:30 10,8 C 10,4 C 80 % 1005,4 hPa 0,0 mm 1,5 km/h (1 Bft) S-SO 157 0 min 7,5 C 12,2 km/h (2 Bft)
14.06.2016 23:35 10,8 C 10,4 C 81 % 1005,4 hPa 0,0 mm 2,4 km/h (1 Bft) W-SW 247 0 min 7,7 C 0,0 km/h (0 Bft)
14.06.2016 23:40 10,8 C 10,4 C 81 % 1005,4 hPa 0,0 mm 1,8 km/h (1 Bft) S 180 0 min 7,7 C 0,0 km/h (0 Bft)
14.06.2016 23:45 10,7 C 10,4 C 81 % 1005,4 hPa 0,0 mm 1,8 km/h (1 Bft) NW 315 0 min 7,6 C 8,9 km/h (2 Bft)
14.06.2016 23:50 10,7 C 10,3 C 82 % 1005,4 hPa 0,0 mm 2,4 km/h (1 Bft) S-SW 202 0 min 7,8 C 3,9 km/h (1 Bft)
14.06.2016 23:55 10,7 C 10,3 C 82 % 1005,3 hPa 0,0 mm 3,3 km/h (1 Bft) S 180 0 min 7,8 C 4,8 km/h (1 Bft)
_ Min-Zeit 05:55 05:50 12:50 17:50 - 18:45 - - - 22:25 23:40
Minimum _ 9,7 C 9,6 C 64 % 1004,4 hPa - 0,0 km/h (0 Bft) - - - 7,4 C 0,0 km/h (0 Bft)
_ Max-Zeit 12:45 11:15 07:35 11:10 14:05 15:50 - - 12:55 11:05 20:25
Maximum _ 18,5 C 25,5 C 87 % 1006,9 hPa 2,1 mm 12,5 km/h
W-NW (3 Bft)
- - 5 min 12,5 C 35,2 km/h
SW (5 Bft)
Durchschnitt _ 13,1 C 14,2 C 79 % 1005,6 hPa #6,2 mm 2,9 km/h (1 Bft) W-SW - #3:50 h 9,5 C 4,3 km/h (1 Bft)